Ellensburg, WA
on Monday, November 12, 2012

Monday
Previous Day Next Day
Daily Summary
 ActualAverage (KYKM)Record (KYKM)
Temperature
Mean Temperature °F 39°F  
Max Temperature 39°F 50°F 71°F (2008)
Min Temperature 33°F 28°F 7°F (1985)
Degree Days
Heating Degree Days 29 26  
Month to date heating degree days 291  
Since 1 July heating degree days 995  
Cooling Degree Days 0 0  
Month to date cooling degree days 0  
Year to date cooling degree days 472  
Moisture
Dew Point 31°F   
Average Humidity 82    
Maximum Humidity 87    
Minimum Humidity 75    
Precipitation
Precipitation 0.04 in 0.03 in 0.46 in (1973)
Month to date precipitation 0.37  
Year to date precipitation 6.04  
Snow
Snow 0.00 in 0.10 in 0.00 in (2002)
Month to date snowfall 0.5  
Year to date snowfall 9.2  
Since 1 July snowfall 0.6  
Snow Depth in   
Wind
Wind Speed 2 mph   
Max Wind Speed 5 mph   
Max Gust Speed mph   
Visibility 4 miles   
Events Snow   

Key: T is trace of precipitation, MM is missing value
Source: NWS Daily Summary
Time(PST)TemperatureDew PointHumidity Pressure Visibility Wind DirectionWind SpeedGust SpeedPrecipitationEvents Conditions
12:01 AM 33.8°F 28.4°F 81% 30.20 in 1.5 miles ESE 4.6 mph - 0.01 in Snow Light Snow
12:09 AM 33.8°F 28.4°F 81% 30.20 in 1.8 miles East 4.6 mph - 0.01 in Snow Light Snow
12:15 AM 33.8°F 28.4°F 81% 30.20 in 3.0 miles ESE 4.6 mph - 0.01 in Snow Light Snow
12:53 AM 34.0°F 30.0°F 85% 30.23 in 4.0 miles SE 3.5 mph - 0.01 in Snow Light Snow
1:13 AM 33.8°F 30.2°F 87% 30.19 in 5.0 miles Calm Calm - 0.00 in   Overcast
1:53 AM 34.0°F 28.9°F 82% 30.22 in 4.0 miles Calm Calm - 0.01 in Snow Light Snow
2:53 AM 34.0°F 28.9°F 82% 30.21 in 2.0 miles Calm Calm - 0.00 in Snow Light Snow
3:05 AM 33.8°F 30.2°F 87% 30.17 in 5.0 miles Calm Calm - 0.01 in Snow Light Snow
3:53 AM 34.0°F 28.9°F 82% 30.21 in 10.0 miles Calm Calm - 0.01 in   Overcast
4:53 AM 34.0°F 28.9°F 82% 30.21 in 6.0 miles Calm Calm - 0.00 in Snow Light Snow
5:42 AM 33.8°F 28.4°F 81% 30.15 in 4.0 miles Calm Calm - 0.00 in Snow Light Snow
5:53 AM 34.0°F 28.9°F 82% 30.20 in 8.0 miles NE 3.5 mph - 0.00 in   Overcast
6:10 AM 33.8°F 28.4°F 81% 30.16 in 9.0 miles NE 4.6 mph - N/A   Overcast
6:53 AM 35.1°F 28.9°F 78% 30.20 in 6.0 miles Calm Calm - 0.01 in Snow Light Snow
7:53 AM 35.1°F 28.9°F 78% 30.22 in 8.0 miles Calm Calm - 0.00 in   Overcast
8:53 AM 35.1°F 30.0°F 82% 30.22 in 6.0 miles Calm Calm - N/A   Haze
9:11 AM 35.6°F 30.2°F 81% 30.17 in 6.0 miles Calm Calm - N/A   Haze
9:53 AM 35.1°F 30.0°F 82% 30.22 in 4.0 miles WNW 3.5 mph - N/A   Haze
10:53 AM 37.9°F 30.9°F 76% 30.23 in 9.0 miles Calm Calm - N/A   Overcast
11:53 AM 37.9°F 30.9°F 76% 30.22 in 9.0 miles Calm Calm - N/A   Overcast
12:53 PM 37.9°F 30.9°F 76% 30.22 in 6.0 miles Calm Calm - N/A   Haze
1:53 PM 39.0°F 32.0°F 76% 30.21 in 7.0 miles Calm Calm - N/A   Overcast
2:53 PM 37.9°F 32.0°F 79% 30.22 in 6.0 miles Calm Calm - N/A   Haze
3:53 PM 37.0°F 32.0°F 82% 30.22 in 4.0 miles Calm Calm - N/A   Haze
4:09 PM 37.4°F 30.2°F 75% 30.18 in 4.0 miles ESE 3.5 mph - N/A   Haze
4:49 PM 35.6°F 30.2°F 81% 30.18 in 4.0 miles ESE 3.5 mph - N/A   Haze
4:53 PM 36.0°F 30.9°F 82% 30.23 in 3.0 miles SE 4.6 mph - N/A   Haze
4:58 PM 35.6°F 30.2°F 81% 30.18 in 2.5 miles ESE 3.5 mph - N/A   Haze
5:08 PM 35.6°F 30.2°F 81% 30.19 in 2.5 miles East 4.6 mph - N/A   Haze
5:34 PM 35.6°F 32.0°F 87% 30.18 in 4.0 miles Calm Calm - N/A   Overcast
5:53 PM 37.0°F 32.0°F 82% 30.24 in 5.0 miles South 3.5 mph - N/A   Haze
6:40 PM 35.6°F 30.2°F 81% 30.21 in 4.0 miles Calm Calm - N/A   Haze
6:53 PM 36.0°F 30.9°F 82% 30.25 in 3.0 miles East 3.5 mph - N/A   Haze
7:53 PM 36.0°F 32.0°F 86% 30.25 in 4.0 miles Calm Calm - N/A   Overcast
8:53 PM 37.0°F 32.0°F 82% 30.26 in 3.0 miles Calm Calm - N/A   Haze
9:13 PM 37.4°F 32.0°F 81% 30.22 in 2.5 miles Calm Calm - N/A   Haze
9:53 PM 37.0°F 33.1°F 86% 30.27 in 1.5 miles Calm Calm - N/A   Overcast
10:04 PM 37.4°F 33.8°F 87% 30.23 in 0.8 miles SE 3.5 mph - N/A   Overcast
10:53 PM 37.0°F 33.1°F 86% 30.27 in 0.8 miles Calm Calm - N/A   Mist
11:27 PM 35.6°F 32.0°F 87% 30.25 in 1.0 miles Calm Calm - N/A   Overcast
11:42 PM 37.4°F 32.0°F 81% 30.25 in 1.5 miles Calm Calm - N/A   Haze
11:53 PM 37.0°F 32.0°F 82% 30.29 in 2.0 miles Calm Calm - N/A   Haze
Moon Phase
Nov. 12 Nov. 13 Nov. 20 Nov. 28 Dec. 06
Sunrise:07:02 AM (PST) Moon Rise:05:30 AM (PST)11/12
Sunset:04:30 PM (PST) Moon Set:03:40 PM (PST)11/12

Copyright © 2014 The Weather Underground, Inc.